Flag for Switzerland Weather past 2 weeks in Wallisellen, Zurich, Switzerland

Now
74 °F

Mild.


Feels Like: 77 °F
Forecast: 54 / 82 °F
Wind: 2 mph from Southeast

Location: Zurich Town / Ville.

Current Time: Aug 4, 2015 at 12:19:24 AM

Latest Report: Aug 3, 2015 at 10:00 PM


Visibility: N/A

Pressure: 29.96 "Hg

Humidity: 53%

Dew point: 56 °F

Location of WallisellenLocation

Historic Weather in Wallisellen — Graph

°F

Wallisellen temperature yesterday

Maximum temperature yesterday: 86 °F (at 5:00 PM)
Minimum temperature yesterday: 60 °F (at 5:00 AM)
Average temperature yesterday: 73 °F

Past Weeks' High & Low Weather Summary

 TemperatureHumidityPressure
High92 °F (Jul 21, 5:00 PM)98% (Jul 27, 2:00 AM)30.12 "Hg (Jul 27, 2:00 AM)
Low51 °F (Jul 31, 6:00 AM)29% (Aug 3, 7:00 PM)29.66 "Hg (Jul 24, 5:00 PM)
Average67 °F66%29.94 "Hg
* Reported Jul 19 10:00 PM — Aug 3 10:00 PM, Wallisellen, Weather by CustomWeather, © 2015

Note: Actual official high and low records may vary slightly from our data, if they occured in-between our weather recording intervals... More about our weather records

Advertising

Wallisellen weather history for previous 24 hours

 ConditionsComfort  
Time TempWeatherWind HumidityBarometerVisibility
10:00 PM
Mon, Aug 3
74 °FMild.2 mph53%29.96 "HgN/A
9:00 PM75 °FMild.1 mph52%29.96 "HgN/A
8:00 PM82 °FPleasantly warm.3 mph37%29.93 "HgN/A
7:00 PM85 °FPleasantly warm.3 mph29%29.92 "HgN/A
6:00 PM85 °FPleasantly warm.5 mph32%29.93 "HgN/A
5:00 PM86 °FPleasantly warm.6 mph31%29.94 "HgN/A
4:00 PM84 °FPleasantly warm.7 mph34%29.96 "HgN/A
3:00 PM84 °FPleasantly warm.9 mph34%29.97 "HgN/A
2:00 PM81 °FPleasantly warm.5 mph39%29.99 "HgN/A
1:00 PM80 °FWarm.7 mph50%30.01 "HgN/A
12:00 PM76 °FMild.5 mph56%30.03 "HgN/A
11:00 AM73 °FMild.2 mph67%30.05 "HgN/A
10:00 AM70 °FMild.3 mph71%30.06 "HgN/A
9:00 AM65 °FMild.2 mph80%30.07 "HgN/A
8:00 AM64 °FMild.1 mph83%30.07 "HgN/A
7:00 AM60 °FCool.1 mph91%30.07 "HgN/A
5:00 AM60 °FCool.1 mph89%30.05 "HgN/A
4:00 AM61 °FCool.No wind86%30.05 "HgN/A
3:00 AM62 °FCool.No wind81%30.05 "HgN/A
2:00 AM63 °FMild.1 mph75%30.05 "HgN/A
1:00 AM64 °FMild.1 mph72%30.05 "HgN/A
12:00 AM63 °FMild.3 mph75%30.05 "HgN/A
Weather by CustomWeather, © 2015

See weather overviewHow to use our weather pages